Location: Le Vaud
(46.4779°N, 6.2346°E)
Time: 03:19:52
(UTC+00:00)

Cosmos 1140 Rocket - Pass Details

Date: 18 February 2020
Orbit: 745 x 766 km, 74.1° (Epoch: 09 April)

Event Time Altitude Azimuth Distance (km) Brightness Sun altitude
Rises 05:53:15 0° 218° (SW) 3,220 6.4 -7.8°
Reaches altitude 10° 05:55:42 10° 225° (SW) 2,299 5.6 -7.4°
Maximum altitude 06:00:43 45° 298° (WNW) 1,034 3.8 -6.5°
Drops below altitude 10° 06:05:46 10° 11° (NNE) 2,315 6.0 -5.7°
Sets 06:08:15 0° 18° (NNE) 3,245 6.8 -5.3°
